RH
41 41 44 40 42 39 38 45 44 40 36 45 50 52 41 47 66 76 75 89 91 86 80 74 66 72 74 69 75 75 82 84 90 92 94 88 94 89 80 75 74 75 80 80
42 40 34 34 36 37 37 45 49 42 39 45 51 52 49 62 61 69 78 82 87 83 79 72 67 68 73 71 72 72 76 81 87 95 91 92 96 96 90 82 76 74 74 81
46 38 34 38 42 35 45 48 48 44 44 53 59 57 61 58 66 65 70 75 79 80 79 76 69 64 71 68 68 69 73 79 81 87 92 92 91 89 88 85 80 77 75 80
42 36 36 43 37 36 45 39 43 48 58 64 64 59 56 57 58 64 63 71 76 79 76 75 72 67 65 69 70 70 70 77 71 81 84 87 90 91 91 92 82 78 72 78
52 41 42 43 37 34 41 42 50 56 59 76 72 66 52 68 56 54 56 61 70 76 75 74 75 70 66 72 76 72 71 74 79 80 80 84 79 86 83 84 79 77 75 75
44 42 40 39 34 37 38 51 67 82 80 83 75 72 58 55 51 62 62 58 58 64 72 70 69 66 70 71 65 69 72 73 75 79 79 80 81 80 81 83 85 84 83 80
56 56 41 35 42 47 47 63 74 65 80 68 68 67 54 46 49 45 44 51 62 60 64 71 68 68 68 60 58 57 59 65 70 74 82 85 82 83 82 94 96 86 86 84
69 66 47 38 41 47 50 59 71 69 71 66 63 68 53 51 54 52 47 46 50 57 63 68 68 64 65 59 58 54 55 55 56 63 66 69 74 73 77 76 84 87 82 91
70 62 52 38 38 45 56 59 58 62 76 88 72 62 49 56 53 53 50 51 51 52 56 63 62 62 65 63 58 54 57 56 56 57 60 64 69 69 70 67 67 70 71 51
68 74 64 47 42 43 50 48 72 75 74 78 74 72 58 53 54 53 51 56 62 64 62 58 58 58 62 63 58 57 56 55 56 54 56 57 64 68 79 86 78 66 60 65
60 72 67 72 57 59 51 58 58 65 71 75 90 74 56 54 52 50 53 60 64 67 68 65 64 59 60 63 58 57 52 50 52 52 52 60 84 94 89 81 70 60 58 58
55 68 81 66 69 48 64 59 53 71 74 73 73 67 55 53 55 54 56 59 78 71 63 61 59 62 63 61 56 52 49 47 46 50 57 65 78 81 95 95 77 60 61 55
57 77 90 76 71 60 53 52 50 48 60 79 86 70 56 59 65 60 61 80 69 63 56 58 55 56 58 60 53 48 47 47 55 76 88 89 65 79 87 84 70 86 69 55
58 82 79 75 65 68 79 68 48 43 88 75 77 60 54 52 56 62 77 77 67 57 56 56 53 52 52 52 50 47 47 59 83 89 93 91 94 96 88 84 72 74 71 62
59 83 84 73 69 70 73 75 70 71 63 81 70 65 53 54 61 68 82 61 59 58 56 57 50 51 48 45 46 48 66 78 77 67 84 91 96 96 96 95 92 73 64 54
62 78 86 80 77 73 81 73 72 72 70 70 68 72 50 81 84 85 67 58 57 61 61 69 61 44 44 45 57 68 84 84 86 90 94 97 94 95 96 95 93 77 58 51
63 73 98 92 86 90 93 79 74 80 78 73 84 67 68 93 88 83 67 58 66 66 68 78 86 82 53 59 78 90 94 93 95 98 96 96 95 95 95 92 89 77 59 51
68 82 100 96 98 96 68 70 63 70 66 72 81 89 90 90 86 65 62 66 74 69 78 86 92 86 93 92 94 96 97 97 98 97 97 95 93 92 90 85 70 58 52 55
67 70 99 98 94 84 70 70 70 73 66 81 75 91 94 91 92 78 66 68 70 82 94 97 97 97 97 98 99 98 99 97 96 96 96 93 91 90 88 76 65 54 56 60
89 85 97 99 98 96 73 65 58 65 88 92 89 90 96 99 98 89 70 65 78 85 92 96 97 97 97 98 97 96 96 97 95 94 94 88 77 76 72 55 56 58 64 53
92 98 98 97 98 97 83 61 79 98 89 88 92 100 98 98 96 95 69 72 78 86 92 94 96 99 100 98 97 97 96 94 93 87 77 62 56 55 57 58 64 64 68 68
94 98 97 99 99 96 74 87 98 100 100 100 98 97 97 96 94 95 82 85 89 95 96 99 99 100 99 98 93 91 92 86 81 61 51 52 57 56 48 62 66 66 79 84
92 85 97 98 89 94 98 97 98 98 98 97 97 96 95 95 93 90 92 98 99 100 99 98 99 98 97 94 92 80 60 53 55 56 60 65 65 60 60 64 68 76 86 94
88 82 99 98 95 95 96 98 97 96 96 96 95 94 93 94 97 98 98 98 99 98 98 98 98 97 95 86 55 59 55 55 62 68 73 76 85 78 85 72 76 84 97 98
96 94 94 99 89 95 95 95 97 96 96 95 95 94 92 94 96 94 94 96 96 94 94 95 94 88 68 63 64 65 54 67 71 77 82 88 77 86 94 88 97 94 93 94
92 93 94 96 96 97 97 96 96 95 95 95 92 89 90 92 93 93 96 96 96 95 90 72 60 57 61 64 68 68 68 72 82 88 77 96 96 98 93 98 96 80 75 70
Wind_Speed
5 8 2 3 1 2 3 3 5 6 5 4 5 9 15 6 5 8 8 8 8 8 4 3 2 1 3 4 6 7 7 8 6 3 3 4 5 6 7 7 10 10 9 10
6 2 3 3 2 2 4 3 6 6 3 2 6 12 10 4 5 5 8 8 9 4 4 5 5 1 1 2 5 6 6 6 5 3 2 2 2 3 4 5 8 10 10 10
4 1 2 1 2 6 3 4 3 5 6 3 6 7 3 2 3 2 4 5 6 9 8 7 7 6 3 0 3 4 6 6 6 6 3 3 3 3 4 5 6 8 9 9
1 0 0 1 2 3 5 2 3 6 3 4 3 7 5 3 5 4 6 7 8 7 5 5 6 5 5 3 1 4 5 6 7 8 5 7 4 3 4 4 4 6 9 9
3 2 2 1 2 4 9 3 4 1 1 3 1 2 8 3 5 7 8 9 9 8 8 8 8 6 4 5 3 3 5 5 5 6 6 4 5 3 2 3 6 7 7 9
3 2 2 2 2 3 6 3 2 3 2 2 1 3 7 4 6 2 2 5 7 8 7 6 4 5 4 3 4 3 4 3 4 5 6 6 6 5 5 5 5 4 4 6
6 2 1 0 3 1 7 5 5 7 5 5 2 2 11 5 5 4 4 4 2 5 7 6 7 7 6 8 7 5 5 3 4 5 5 5 5 5 5 2 2 4 4 4
3 8 1 1 1 0 3 3 5 5 4 6 4 7 7 4 2 2 3 5 3 3 4 6 8 7 8 8 6 4 5 4 4 5 5 4 5 3 3 3 2 3 3 2
1 6 2 1 1 3 1 1 1 1 1 2 4 8 10 3 5 4 6 3 5 6 4 7 6 6 6 6 7 8 7 5 5 5 4 4 4 6 5 5 4 3 4 4
3 6 0 1 2 3 2 4 2 2 5 7 5 7 8 5 4 5 4 2 4 4 6 5 6 7 6 6 7 7 7 8 7 6 5 4 4 5 4 4 5 5 4 5
4 3 5 1 5 7 1 1 2 2 4 4 5 7 7 6 7 7 6 3 3 5 6 6 6 5 6 5 6 6 6 6 5 5 5 5 4 4 4 3 3 4 4 5
4 4 5 12 2 1 2 6 7 5 5 5 2 15 2 6 5 7 7 5 3 3 4 5 5 2 4 6 5 5 5 5 4 5 5 5 4 4 3 2 3 4 5 5
7 3 5 7 2 1 5 6 6 2 2 10 6 11 1 4 3 4 7 4 2 4 6 7 7 5 1 4 5 5 5 5 5 5 5 3 4 4 3 3 3 4 5 4
7 5 9 11 11 4 6 7 8 11 5 11 18 30 11 5 8 7 6 4 3 4 6 6 6 5 2 4 5 5 5 5 5 5 4 4 2 2 3 4 4 3 3 3
5 7 7 16 18 14 19 17 17 18 25 16 31 25 26 7 8 4 5 3 2 3 4 6 7 6 1 4 5 5 5 5 4 4 4 3 2 2 2 3 3 5 5 4
3 7 3 15 12 17 21 18 21 23 28 21 29 33 22 4 6 5 5 3 2 0 3 5 6 7 3 3 5 5 5 4 4 3 3 3 3 2 2 2 2 3 5 5
7 3 2 13 2 6 14 16 19 8 8 9 17 22 8 6 6 5 4 2 1 0 3 4 4 5 3 3 5 5 4 3 2 3 3 3 3 2 1 1 2 2 4 3
9 9 3 8 1 12 5 2 5 11 12 10 5 3 3 4 4 4 2 2 2 2 3 3 3 3 4 3 4 4 3 2 3 2 3 3 2 1 1 2 3 3 3 3
13 10 5 6 8 10 19 5 3 2 11 3 8 7 4 3 2 1 4 2 2 3 2 2 2 2 3 4 1 2 1 1 2 3 3 2 1 1 2 3 3 4 3 3
2 6 6 3 6 7 0 1 2 0 13 4 3 5 4 2 0 0 3 2 3 4 2 2 3 2 3 3 2 2 2 3 3 1 1 1 3 3 4 5 4 2 2 3
2 2 10 12 8 6 1 3 3 3 6 2 4 3 2 1 2 2 4 3 2 2 2 2 3 3 1 3 2 2 1 2 1 1 3 4 4 4 5 3 2 2 2 2
3 3 5 3 5 6 3 2 4 4 4 7 5 4 4 5 4 2 3 3 3 3 2 2 2 1 1 1 1 1 3 2 3 3 4 3 4 4 4 1 2 2 1 2
5 6 2 7 4 6 9 6 4 6 5 5 5 7 7 5 5 3 1 3 2 2 2 2 1 1 2 3 2 4 3 3 3 3 4 4 4 4 3 3 2 2 1 2
3 2 3 2 8 10 12 7 8 9 7 6 6 6 7 6 5 3 1 1 2 1 1 1 1 3 4 4 4 3 5 2 3 4 5 4 4 5 3 2 2 2 2 2
4 10 8 3 9 4 11 12 10 8 8 7 5 5 7 6 5 4 3 2 1 1 2 2 3 4 5 4 5 5 5 3 4 5 4 4 3 4 3 3 2 3 4 5
7 6 4 3 7 6 4 10 13 8 8 8 8 7 7 9 7 6 4 3 3 3 3 4 4 5 6 5 6 6 5 4 4 4 4 3 3 3 3 2 4 9 12 13
Wind_Direction
4 62 26 283 247 265 247 240 255 260 277 299 248 269 279 284 231 230 222 215 222 228 235 179 202 223 346 20 2 6 357 353 359 359 360 27 38 25 30 29 29 29 22 18
26 63 246 251 217 269 258 274 271 285 262 247 303 280 270 244 256 215 218 222 226 207 200 205 210 214 38 349 4 3 1 354 2 344 349 8 23 39 46 21 21 20 21 23
133 203 303 118 335 356 280 220 259 256 309 238 316 289 260 238 281 262 237 224 223 213 214 210 211 207 183 68 10 12 3 359 359 351 348 20 45 47 5 15 15 15 16 18
206 287 153 195 255 114 303 207 285 294 18 287 28 286 283 242 268 249 253 234 240 228 217 214 201 195 188 195 74 31 20 14 17 6 26 41 39 36 359 352 7 8 18 18
274 315 355 335 232 159 242 346 278 278 177 360 289 65 268 6 265 250 237 236 238 226 207 211 210 195 172 152 146 83 54 33 23 35 45 57 67 55 13 11 17 13 13 17
264 314 190 251 296 203 316 334 76 59 92 357 346 115 277 206 211 196 235 237 238 224 221 222 185 165 158 140 134 133 114 89 55 56 59 69 70 54 41 21 23 5 357 13
334 247 300 101 328 63 22 19 342 353 4 229 293 278 248 243 234 191 223 260 263 217 218 209 197 191 186 179 179 170 145 103 93 78 61 64 79 72 70 35 21 17 1 10
32 331 174 155 145 315 33 110 145 288 282 284 312 240 252 210 291 237 276 279 312 257 235 221 217 202 194 189 179 173 158 136 110 100 98 96 96 97 82 54 26 41 33 343
42 277 282 63 93 100 140 211 152 256 264 347 246 284 291 234 259 234 251 322 353 327 288 249 231 222 211 195 184 175 164 147 138 128 113 85 60 54 46 37 29 18 6 26
175 304 237 3 82 34 158 164 13 34 308 292 274 274 247 292 237 212 230 307 351 356 17 315 259 222 205 191 181 170 168 168 168 154 145 123 105 90 73 54 26 20 10 10
139 135 284 314 195 182 114 251 85 162 175 224 290 258 211 228 213 197 181 121 61 3 354 339 312 252 198 169 169 176 171 152 146 145 129 115 97 92 79 53 6 14 21 21
195 152 259 237 167 132 177 205 171 166 228 233 206 267 182 246 234 163 164 146 64 12 345 323 341 342 181 173 162 159 155 149 154 129 118 117 125 105 76 41 340 35 38 12
185 212 310 320 29 35 208 204 205 232 326 230 243 262 61 83 156 182 167 145 47 7 354 353 2 7 238 169 163 167 158 152 138 128 127 112 87 102 50 340 38 45 4 8
152 192 197 241 252 172 212 208 202 209 221 261 242 271 229 204 225 212 186 119 89 31 12 354 350 338 275 173 157 159 158 148 147 147 137 122 116 58 52 26 30 47 25 333
175 236 228 245 258 264 264 256 247 228 244 241 263 264 270 245 241 183 144 148 100 45 12 352 350 343 339 158 148 142 135 138 153 140 125 149 136 109 46 26 10 354 360 356
192 255 223 276 233 240 266 256 251 247 255 252 254 268 279 108 115 132 163 169 157 34 357 4 0 353 359 138 134 126 126 132 128 143 162 151 118 97 60 32 5 345 343 347
165 217 213 270 98 313 271 238 230 223 226 216 237 251 194 168 154 166 176 182 186 249 2 11 6 9 31 129 135 135 130 134 147 167 139 113 105 96 44 360 338 326 305 303
206 207 204 271 102 262 265 239 217 221 249 217 266 226 143 126 128 124 95 160 127 27 31 25 22 32 29 43 80 108 129 167 180 137 113 109 105 71 330 304 299 287 287 305
223 246 247 250 230 298 308 2 23 156 293 262 235 138 120 85 77 108 132 115 126 127 100 68 63 59 60 59 46 121 133 168 139 107 114 108 79 295 294 279 283 270 276 288
103 240 240 210 247 244 59 33 356 95 271 14 91 137 163 158 110 26 143 113 87 81 111 122 93 67 64 5 358 136 149 117 107 95 70 290 267 260 265 262 248 264 267 292
187 191 227 248 269 264 6 52 9 253 327 236 2 20 92 74 48 99 113 92 101 118 124 88 85 113 58 356 33 77 120 144 124 279 269 260 258 277 270 255 256 259 280 320
215 222 219 238 256 280 33 358 210 357 349 8 45 19 2 10 5 70 133 133 142 123 89 104 112 114 343 13 44 260 264 223 242 255 286 299 303 294 293 286 265 264 222 285
257 205 230 217 290 51 37 44 14 353 50 16 21 17 2 353 6 27 111 110 103 123 82 48 129 260 259 260 253 266 276 280 276 291 288 290 295 291 298 286 277 269 250 266
255 5 228 217 42 10 28 45 34 28 44 33 24 12 9 351 8 21 40 90 75 36 11 355 336 284 282 276 289 278 293 303 286 279 282 282 271 268 267 292 300 285 251 261
3 329 348 313 13 12 65 23 3 12 21 17 20 14 11 357 14 2 2 12 345 311 339 311 285 283 284 294 288 291 290 277 271 274 273 267 256 283 280 273 231 250 243 223
358 358 355 323 11 296 351 4 358 7 6 9 6 3 17 16 4 359 352 348 339 319 317 303 294 299 295 295 291 287 271 254 261 268 267 233 237 250 256 266 290 282 272 273